Dewpoint
51 51 52 53 53 53 53 54 54 53 54 54 56 57 58 58 58 52 46 45 47 52 55 54 51 47 42 38 40 35 22 12 14 14 23 42 40 39 39 37 34 33 33 34 35
51 51 51 51 52 52 52 53 53 54 52 55 55 57 57 58 53 50 49 52 53 56 49 50 47 43 37 34 36 32 22 17 30 25 28 41 42 39 38 37 34 32 32 33 33
50 50 50 50 50 52 52 52 52 54 53 53 55 57 58 56 48 45 52 55 55 56 46 47 42 38 31 33 31 29 28 34 37 38 38 41 39 39 40 34 32 32 31 32 31
49 49 49 49 49 50 51 51 51 52 53 53 55 57 58 51 38 43 51 56 56 53 45 45 39 36 31 29 28 30 34 36 35 38 38 38 36 32 31 29 29 29 29 30 29
49 49 49 48 49 49 50 50 50 51 53 55 56 57 52 46 43 42 54 55 52 51 46 42 38 34 29 28 28 27 33 34 35 35 36 35 33 30 27 28 27 27 26 26 26
47 49 48 49 48 48 48 49 49 51 54 55 56 57 50 43 43 42 50 52 48 48 46 41 36 34 29 26 29 32 33 34 35 34 33 31 29 31 27 26 25 25 24 23 22
47 47 47 48 48 47 47 48 49 52 54 56 56 53 47 44 45 45 50 50 46 44 42 40 35 32 31 32 33 33 32 33 34 34 33 33 31 27 26 25 24 23 22 22 21
47 48 47 47 47 47 47 48 51 53 56 56 56 52 44 47 46 44 49 48 46 43 42 40 38 33 32 34 32 31 31 30 33 35 34 35 33 26 25 25 24 23 21 20 19
48 47 47 48 47 46 47 50 53 55 54 56 53 49 43 46 41 42 49 47 45 44 44 40 38 34 34 30 29 29 22 22 31 34 34 34 30 27 25 24 23 22 21 19 18
48 48 48 48 46 47 49 52 54 55 53 52 50 46 43 38 39 45 47 46 44 42 40 37 36 32 29 26 21 22 22 21 27 30 32 33 30 26 25 24 23 21 20 19 17
48 48 49 48 46 46 49 50 47 46 49 41 42 40 35 42 46 45 45 45 41 38 30 33 32 27 25 26 23 19 20 19 27 29 31 31 31 26 24 24 23 21 20 18 15
48 49 49 49 45 46 48 44 45 46 40 44 44 42 42 43 40 44 42 36 36 30 30 31 29 28 26 25 24 22 20 20 28 27 28 29 29 27 25 24 23 22 21 18 14
49 50 48 47 43 46 47 47 49 47 40 37 41 41 40 42 36 41 40 32 31 28 27 27 27 27 26 25 24 25 21 22 24 26 26 26 27 25 25 25 24 24 23 20 17
49 47 46 43 43 45 44 47 47 49 32 32 38 41 42 38 34 41 40 33 29 26 26 27 23 25 29 26 26 22 23 23 26 25 23 26 19 26 24 24 24 23 23 22 20
48 48 45 46 43 42 44 46 46 45 23 31 36 40 38 34 38 40 43 35 30 26 26 23 21 26 30 28 26 22 24 26 27 25 22 23 23 19 25 23 23 22 22 21 19
48 48 45 43 45 43 46 48 45 31 22 29 33 33 33 34 34 39 39 34 33 30 26 24 27 25 28 29 25 27 26 27 27 26 25 24 21 17 22 23 23 23 22 20 16
47 49 46 44 40 47 46 43 32 21 21 27 30 31 30 30 30 35 37 33 28 26 26 26 26 27 27 26 28 27 25 24 24 24 20 21 21 21 21 22 22 23 21 19 13
46 48 48 45 45 43 46 35 23 22 21 31 32 31 29 29 29 33 37 34 30 27 24 24 23 26 29 26 28 27 25 21 16 17 17 20 19 22 19 16 18 23 20 17 11
45 47 41 44 45 47 40 27 21 24 29 30 29 28 27 28 31 34 34 36 36 29 27 22 22 25 26 27 26 26 25 24 19 18 18 19 22 18 16 16 19 20 17 14 9
42 42 41 43 48 46 35 25 25 30 31 30 25 27 23 30 33 34 35 37 35 37 33 33 27 25 26 29 28 25 25 23 25 24 20 14 16 20 17 16 17 17 15 12 8
43 34 40 41 48 36 26 23 28 30 31 28 24 25 29 29 32 33 35 32 36 36 38 37 32 32 28 27 25 27 26 25 27 25 16 13 14 14 20 19 16 16 14 10 5
35 24 38 41 33 31 26 27 29 27 29 28 28 27 27 28 32 31 32 35 29 27 36 37 34 30 29 28 26 27 25 25 25 22 24 23 20 14 14 18 16 14 11 7 3
20 23 36 41 22 22 25 28 29 27 26 26 26 28 28 27 29 29 31 33 32 33 33 34 31 29 29 31 30 29 30 29 28 29 27 24 23 14 14 15 14 11 9 6 2
19 11 30 35 31 26 20 17 21 27 25 24 24 24 26 27 29 31 31 35 33 34 37 35 30 31 27 25 28 28 32 30 31 31 28 27 30 16 15 14 13 12 11 11 9
17 14 18 1 20 22 22 17 16 13 23 22 19 21 22 24 22 24 25 30 32 34 34 33 29 30 29 29 28 32 30 30 30 30 29 31 30 25 19 18 17 15 13 10 9
17 13 15 6 10 8 9 2 10 12 17 12 18 12 17 16 17 21 21 26 26 30 31 32 27 27 26 27 27 26 30 33 31 31 32 33 31 23 22 18 16 14 12 10 9
24 25 21 12 5 4 -2 5 11 15 9 13 14 15 11 10 17 18 23 29 32 29 29 29 27 25 23 23 23 22 25 29 33 34 32 31 33 19 16 16 15 13 12 11 10
Lifted_Index
5 5 4 3 2 2 2 1 1 1 2 1 0 0 0 1 1 1 2 2 2 2 0 -1 -1 1 3 3 4 4 5 5 4 3 3 2 2 2 2 1 0 -0 -0 0 1
5 5 5 4 3 2 2 1 1 1 1 1 1 0 0 0 1 1 1 2 1 1 0 -1 -0 1 3 3 4 4 5 5 4 3 2 2 1 1 1 1 0 -0 -0 0 1
6 6 5 5 4 3 3 2 2 1 1 1 1 0 0 1 1 1 1 1 1 0 -0 -0 0 1 2 3 4 4 5 5 5 3 2 2 2 1 1 1 0 0 -0 -0 -0
7 6 6 6 5 4 3 3 2 2 2 1 1 0 0 1 1 2 1 1 0 0 -0 -0 0 1 2 3 3 4 5 5 5 4 3 3 3 2 1 1 1 1 0 -0 -1
7 7 6 6 6 5 4 4 4 3 2 1 1 0 0 1 1 2 1 0 -0 -0 -0 -0 0 1 2 2 3 3 4 5 5 5 4 4 3 2 1 1 2 1 0 -0 -0
8 8 7 7 7 6 6 5 4 3 2 1 1 1 0 1 1 1 0 -0 -0 -0 -0 0 1 1 1 2 2 3 3 4 5 5 5 4 3 3 2 2 2 1 0 -0 -0
9 8 8 8 8 7 7 6 5 3 2 1 1 1 1 1 1 1 0 -0 0 0 -0 0 1 1 1 2 2 3 3 4 4 4 4 4 3 3 3 2 2 1 1 0 0
10 9 8 8 8 8 7 6 4 2 1 1 1 1 1 1 1 1 0 -0 -0 0 0 0 1 1 2 2 2 2 3 3 4 4 4 4 3 3 3 2 2 1 1 1 1
11 10 9 8 8 7 6 5 3 2 1 0 1 1 1 1 1 1 -0 -0 -0 -0 0 0 1 1 2 2 2 2 2 3 3 4 4 4 3 3 3 2 2 2 1 1 1
11 10 9 8 7 6 4 3 2 1 0 0 1 1 1 2 2 1 -0 -0 -0 0 0 1 1 2 2 2 2 2 2 2 3 3 4 4 4 3 2 2 2 2 1 1 1
11 10 9 8 7 5 3 2 1 1 1 0 1 1 2 2 1 1 0 0 0 1 1 1 1 2 2 2 1 1 1 1 2 3 3 3 3 3 2 2 2 2 2 1 1
10 10 9 8 7 5 3 2 2 2 1 1 1 1 2 2 1 1 1 1 1 1 1 1 1 1 1 1 1 1 1 1 1 2 3 3 3 3 2 2 2 2 2 2 2
10 10 9 8 7 5 3 3 3 2 2 1 1 1 2 2 1 1 1 2 2 2 2 1 1 1 1 1 1 1 0 1 1 2 2 3 3 3 2 2 2 2 2 2 2
10 10 10 9 7 5 4 3 3 2 2 2 2 1 1 2 1 1 1 2 2 2 2 2 2 1 1 1 1 1 0 0 1 2 2 2 2 2 2 2 2 2 2 2 2
10 10 10 9 7 5 4 3 3 2 2 2 2 2 2 2 1 1 1 1 2 2 2 2 2 2 1 1 1 1 1 1 1 1 2 2 2 2 2 2 2 1 2 2 2
10 10 9 8 7 6 4 3 2 2 2 2 2 2 2 2 1 1 1 1 2 2 2 2 2 2 1 1 1 1 1 1 1 1 1 2 2 3 3 3 2 2 2 2 3
10 9 8 7 6 5 4 3 2 2 2 2 2 2 2 2 2 1 1 1 2 2 2 2 2 2 2 1 1 1 1 1 1 1 1 2 2 3 3 3 3 3 3 3 3
9 9 7 6 5 5 3 2 2 2 2 2 1 1 2 2 2 2 1 1 2 2 2 2 2 2 2 2 1 2 1 1 0 0 1 2 2 3 3 3 3 3 3 4 4
9 8 7 6 5 4 3 2 2 2 2 1 1 1 1 2 2 2 1 1 1 2 2 2 2 2 2 2 2 2 1 1 0 0 1 1 2 2 3 3 3 3 3 4 4
9 8 7 6 4 3 3 3 3 2 2 1 1 1 1 1 1 1 1 1 1 1 2 2 2 2 2 2 2 2 1 1 1 0 0 1 2 2 3 3 3 3 3 4 5
9 8 7 6 4 4 3 3 3 3 2 2 1 1 1 1 1 1 1 1 1 1 1 1 1 2 2 2 2 2 2 1 1 1 1 1 1 2 2 3 3 3 3 4 5
10 9 8 6 5 4 4 3 3 3 3 2 2 2 1 1 1 1 1 1 2 1 1 1 1 1 1 2 2 2 2 2 1 1 1 1 1 2 2 2 2 3 3 5 7
12 10 8 6 5 5 4 4 4 3 3 3 2 2 2 2 1 1 1 2 2 2 2 2 1 1 1 1 1 2 2 2 2 1 1 1 1 1 2 2 2 2 3 5 7
12 11 9 7 6 6 5 5 4 4 4 4 3 3 2 2 2 2 2 2 2 2 2 2 2 1 1 1 1 1 2 2 2 2 2 2 1 1 2 2 2 2 3 5 6
13 12 11 9 8 7 6 5 5 5 4 4 4 4 3 3 3 3 3 3 3 3 3 3 2 2 2 1 1 1 1 1 1 2 2 2 2 2 2 2 2 2 3 4 6
13 13 12 10 9 8 7 6 6 5 5 5 5 5 4 4 4 4 4 4 4 3 3 3 2 2 2 2 2 1 1 1 1 1 1 2 2 2 2 2 2 2 3 5 6
14 14 12 11 9 8 7 7 6 6 6 5 5 5 5 5 5 5 5 5 4 4 3 3 2 2 2 2 2 1 1 1 1 1 1 1 2 2 2 2 2 2 3 5 7